sat.trackr.live / text

‹ back to catalog

FENGYUN 3H

NORAD 65815 · 2025-219A

PAYLOAD ACTIVE UNKNOWN

§ Identity

Operator
Country
PRC
Launch date
2025-09-26
Launch site
JSC
Launch vehicle
Mass (kg)
RCS (m²)

Purposes: earth_obs

External: N2YO · Heavens-Above · Gunter

§ Orbital elements

Epoch: 2026-05-25T01:39:24.452064Z

Period
101.41 min
Inclination
98.6762°
Eccentricity
0.0001551
Mean motion
14.19915625 rev/d
Perigee alt
824.5 km
Apogee alt
826.8 km
Semi-major
7,203.8 km
B*
3.8984e-5
RAAN
86.2890°
Arg perigee
94.8367°
Mean anomaly
265.2987°
Rev number
3,410

§ Raw data

FENGYUN 3H1 65815U 25219A   26145.06903301  .00000039  00000+0  38984-4 0  99912 65815  98.6762  86.2890 0001551  94.8367 265.2987 14.19915625 34107

JSON: /api/v1/satellites/65815 · /tle

For live sub-satellite position, see the globe view (requires WebGL).

§ Visibility from observer

Set your observer location to see the next 7 days of passes ≥ 10°. The values pass through the URL so the page stays shareable.

No JS? Fill the form by hand. The geolocation button needs JavaScript.

§ Radio — SatNOGS DB

ModeDescriptionDownlinkUplink
FM S-band telemetry 2.219 GHz
FM S-band telemetry 2.253 GHz

2 transmitters · refreshed weekly from db.satnogs.org